Weather History for West Vancouver, BC

Change the Weather History Date:

Wednesday, October 10, 2012

  Actual Average Record
Temperature  
Mean Temperature 48 °F -  
Max Temperature 51 °F - - ()
Min Temperature 45 °F - - ()
Degree Days  
Heating Degree Days 17    
Moisture  
Dew Point 46 °F    
Average Humidity 91    
Maximum Humidity 95    
Minimum Humidity 85    
Precipitation  
Precipitation 0.00 in - - ()
Sea Level Pressure  
Sea Level Pressure 30.02 in    
Wind  
Wind Speed 1 mph ()    
Max Wind Speed 1 mph    
Max Gust Speed -    
T = Trace of Precipitation, MM = Missing Value Source: Averaged Metar Reports

Daily Weather History Graph

Daily Weather History Graph

Search for Another Location

Airport:

Trip Planner

Search our weather history database for the weather conditions in past years. The results will help you decide how hot, cold, wet, or windy it might be!

Date:

Astronomy

Oct. 10, 2012 Rise Set
Actual Time 7:27 AM PDT 6:31 PM PDT
Civil Twilight 6:55 AM PDT 7:03 PM PDT
Nautical Twilight 6:18 AM PDT 7:40 PM PDT
Astronomical Twilight 5:40 AM PDT 8:17 PM PDT
Moon 1:42 AM PDT (10/10) 3:59 PM PDT (10/10)
Length of Visible Light 12h 08m
Length of Day
11h 04m
Waning Crescent, 26% of the Moon is Illuminated
Oct 10
Waning Crescent
Oct 15
New
Oct 21
First Quarter
Oct 29
Full
Nov 6
Last Quarter

Hourly Weather History & Observations

Time (PDT) Temp. Dew Point Humidity Pressure Visibility Wind Dir Wind Speed Gust Speed Precip Events Conditions
12:00 AM 48.0 °F 45.3 °F 90% 30.05 in - NNE 1.2 mph - N/A   Unknown
1:00 AM 46.9 °F 44.2 °F 90% 30.04 in - Calm Calm - N/A   Unknown
2:00 AM 46.8 °F 44.4 °F 92% 30.04 in - NNE 1.2 mph - N/A   Unknown
3:00 AM 46.4 °F 44.4 °F 93% 30.03 in - NNE 1.2 mph - N/A   Unknown
4:00 AM 46.6 °F 45.0 °F 94% 30.02 in - NNE 1.2 mph - N/A   Unknown
5:00 AM 46 °F 45 °F 93% 30.02 in - NNE 1.2 mph - -  
5:00 AM 46.4 °F 44.6 °F 93% 30.02 in - NNE 1.2 mph - N/A   Unknown
6:00 AM 46.4 °F 44.6 °F 93% 30.02 in - NNE 1.2 mph - N/A   Unknown
7:00 AM 45.9 °F 44.2 °F 94% 30.02 in - NNE 1.2 mph - N/A   Unknown
8:00 AM 47.7 °F 46.2 °F 95% 30.03 in - Calm Calm - N/A   Unknown
9:00 AM 48.7 °F 46.8 °F 93% 30.04 in - Calm Calm - N/A   Unknown
10:00 AM 49.8 °F 46.9 °F 90% 30.04 in - SSW 1.2 mph - N/A   Unknown
11:00 AM 50 °F 47 °F 85% 30.04 in - SSW 1.2 mph - -  
11:00 AM 49.6 °F 46.8 °F 90% 30.04 in - SSW 1.2 mph - N/A   Unknown
12:00 PM 50.2 °F 47.5 °F 90% 30.04 in - WSW 1.2 mph - N/A   Unknown
1:00 PM 50.5 °F 47.5 °F 89% 30.03 in - SW 1.2 mph - N/A   Unknown
2:00 PM 50.9 °F 47.7 °F 89% 30.02 in - SW 1.2 mph - N/A   Unknown
3:00 PM 50.2 °F 47.7 °F 91% 30.01 in - SSW 1.2 mph - N/A   Unknown
4:00 PM 50.2 °F 47.5 °F 90% 30.01 in - SW 1.2 mph - N/A   Unknown
5:00 PM 50 °F 48 °F 89% 30.00 in - South 1.2 mph - -  
5:00 PM 49.8 °F 47.7 °F 92% 30.00 in - South 1.2 mph - N/A   Unknown
6:00 PM 49.6 °F 47.5 °F 92% 30.00 in - Calm Calm - N/A   Unknown
7:00 PM 49.5 °F 47.3 °F 92% 30.00 in - Calm Calm - N/A   Unknown
8:00 PM 49.3 °F 46.9 °F 92% 30.00 in - Calm Calm - N/A   Unknown
9:00 PM 49.3 °F 46.8 °F 91% 30.00 in - Calm Calm - N/A   Unknown
10:00 PM 49.1 °F 46.6 °F 91% 30.01 in - Calm Calm - N/A   Unknown
11:00 PM 49 °F 46 °F 87% 30.01 in - West 1.2 mph - -  
11:00 PM 48.9 °F 46.2 °F 90% 30.01 in - West 1.2 mph - N/A   Unknown